Weather History for Elmira, NY

Change the Weather History Date:

Saturday, October 19, 2013

  Actual Average Record
Temperature  
Mean Temperature 46 °F -  
Max Temperature 61 °F 58 °F 85 °F (1950)
Min Temperature 33 °F 35 °F 15 °F (1974)
Degree Days  
Heating Degree Days 18    
Moisture  
Dew Point 37 °F    
Average Humidity 85    
Maximum Humidity 100    
Minimum Humidity 46    
Precipitation  
Precipitation 0.14 in - - ()
Sea Level Pressure  
Sea Level Pressure 29.88 in    
Wind  
Wind Speed 2 mph (SW)    
Max Wind Speed 20 mph    
Max Gust Speed 29 mph    
Visibility 6 miles    
Events Fog , Rain    
Averages and records for this station are not official NWS values.
T = Trace of Precipitation, MM = Missing Value Source: NWS Daily Summary

Daily Weather History Graph

Daily Weather History Graph

Search for Another Location

Airport:

Trip Planner

Search our weather history database for the weather conditions in past years. The results will help you decide how hot, cold, wet, or windy it might be!

Date:

Astronomy

Oct. 19, 2013 Rise Set
Actual Time 7:25 AM EDT 6:19 PM EDT
Civil Twilight 6:56 AM EDT 6:47 PM EDT
Nautical Twilight 6:24 AM EDT 7:20 PM EDT
Astronomical Twilight 5:51 AM EDT 7:52 PM EDT
Moon 6:44 PM EDT (10/19) 8:01 AM EDT (10/19)
Length of Visible Light 11h 50m
Length of Day
10h 54m
Waxing Gibbous, 99% of the Moon is Illuminated
Oct 19
Waxing Gibbous
Oct 26
Last Quarter
Nov 3
New
Nov 10
First Quarter
Nov 17
Full

Hourly Weather History & Observations

Time (EDT) Temp. Dew Point Humidity Pressure Visibility Wind Dir Wind Speed Gust Speed Precip Events Conditions
12:53 AM 36.0 °F 34.0 °F 93% 29.97 in 4.0 mi Calm Calm - N/A   Clear
1:18 AM 35.6 °F 33.8 °F 93% 29.96 in 2.5 mi Calm Calm - N/A   Clear
1:27 AM 37.4 °F 33.8 °F 87% 29.95 in 6.0 mi Calm Calm - N/A   Clear
1:53 AM 37.0 °F 34.0 °F 89% 29.96 in 8.0 mi Calm Calm - N/A   Clear
2:53 AM 35.1 °F 33.1 °F 92% 29.96 in 6.0 mi Calm Calm - N/A   Clear
3:14 AM 33.8 °F 32.0 °F 93% 29.95 in 1.8 mi Calm Calm - N/A   Clear
3:24 AM 35.6 °F 33.8 °F 93% 29.94 in 3.0 mi Calm Calm - N/A   Clear
3:48 AM 35.6 °F 33.8 °F 93% 29.94 in 2.0 mi Calm Calm - N/A   Partly Cloudy
3:49 AM 36.0 °F 33.1 °F 89% 29.95 in 2.0 mi Calm Calm - N/A   Partly Cloudy
3:59 AM 35.6 °F 33.8 °F 93% 29.94 in 10.0 mi Calm Calm - N/A   Scattered Clouds
4:53 AM 36.0 °F 34.0 °F 93% 29.95 in 3.0 mi Calm Calm - N/A   Partly Cloudy
4:55 AM 35.6 °F 33.8 °F 93% 29.94 in 1.5 mi Calm Calm - N/A   Clear
5:10 AM 35.6 °F 33.8 °F 93% 29.93 in 2.0 mi Calm Calm - N/A   Partly Cloudy
5:17 AM 37.4 °F 35.6 °F 93% 29.93 in 4.0 mi Calm Calm - N/A   Scattered Clouds
5:27 AM 35.6 °F 33.8 °F 93% 29.93 in 2.5 mi Calm Calm - N/A   Mostly Cloudy
5:33 AM 35.6 °F 33.8 °F 93% 29.93 in 1.0 mi Calm Calm - N/A   Mist
5:40 AM 35.6 °F 33.8 °F 93% 29.93 in 0.8 mi Calm Calm - N/A   Mist
5:53 AM 35.1 °F 34.0 °F 96% 29.94 in 0.2 mi Calm Calm - N/A Fog Fog
6:03 AM 35.6 °F 33.8 °F 93% 29.93 in 5.0 mi Calm Calm - N/A   Overcast
6:38 AM 33.8 °F 33.8 °F 100% 29.92 in 5.0 mi Calm Calm - N/A   Mist
6:53 AM 33.1 °F 32.0 °F 96% 29.94 in 5.0 mi Calm Calm - N/A   Mist
6:56 AM 33.8 °F 33.8 °F 100% 29.92 in 5.0 mi Calm Calm - N/A   Mostly Cloudy
7:27 AM 33.8 °F 32.0 °F 93% 29.91 in 10.0 mi Calm Calm - N/A   Scattered Clouds
7:53 AM 33.1 °F 30.9 °F 92% 29.94 in 10.0 mi Calm Calm - N/A   Clear
8:28 AM 35.6 °F 35.6 °F 100% 29.92 in 10.0 mi Calm Calm - N/A   Scattered Clouds
8:37 AM 37.4 °F 35.6 °F 93% 29.92 in 10.0 mi Calm Calm - N/A   Mostly Cloudy
8:53 AM 39.0 °F 37.0 °F 93% 29.94 in 10.0 mi Calm Calm - N/A   Scattered Clouds
9:53 AM 43.0 °F 41.0 °F 93% 29.92 in 8.0 mi Calm Calm - N/A   Clear
10:53 AM 50.0 °F 42.1 °F 74% 29.89 in 10.0 mi Calm Calm - N/A   Clear
11:53 AM 60.1 °F 39.9 °F 47% 29.85 in 10.0 mi SW 15.0 mph 21.9 mph N/A   Mostly Cloudy
12:53 PM 60.1 °F 39.0 °F 46% 29.81 in 10.0 mi SSW 18.4 mph 28.8 mph N/A   Scattered Clouds
1:53 PM 59.0 °F 41.0 °F 51% 29.79 in 10.0 mi South 16.1 mph 24.2 mph N/A   Mostly Cloudy
2:53 PM 57.9 °F 42.1 °F 56% 29.75 in 10.0 mi SSW 19.6 mph 27.6 mph N/A   Mostly Cloudy
3:53 PM 53.1 °F 46.0 °F 77% 29.75 in 4.0 mi South 12.7 mph - 0.04 in Rain Light Rain
4:53 PM 53.1 °F 46.9 °F 80% 29.73 in 9.0 mi South 13.8 mph 20.7 mph 0.07 in Rain Light Rain
5:53 PM 52.0 °F 46.9 °F 83% 29.73 in 6.0 mi SSW 3.5 mph - 0.00 in Rain Light Rain
6:53 PM 52.0 °F 46.9 °F 83% 29.72 in 10.0 mi SW 6.9 mph - 0.01 in   Overcast
7:53 PM 52.0 °F 46.0 °F 80% 29.71 in 10.0 mi SW 9.2 mph - 0.00 in Rain Light Rain
8:53 PM 52.0 °F 45.0 °F 77% 29.70 in 10.0 mi WSW 8.1 mph - 0.00 in   Overcast
9:53 PM 52.0 °F 45.0 °F 77% 29.72 in 10.0 mi WSW 12.7 mph - 0.00 in Rain Light Rain
10:53 PM 48.9 °F 39.9 °F 71% 29.75 in 10.0 mi West 12.7 mph - 0.02 in   Scattered Clouds
11:53 PM 48.0 °F 37.9 °F 68% 29.77 in 10.0 mi West 16.1 mph 21.9 mph 0.00 in Rain Light Rain